Torna al catalogo

COSMOS 2499 DEB

AttivoPO
NORAD 56567·DEBRIS·🇷🇺 Russia

Lanciato May 23, 2014 da Plesetsk Cosmodrome

Loading…

Prossimi Passaggi (prossime 24 ore)

TLE

AggiornatoSource: Space-Track

Epoca: Sep 14, 2026, 15:49 UTC

1 56567U 14028BA  26257.65942305  .00006366  00000-0  23874-1 0  9996
2 56567  82.6251 224.3862 0176279 144.4179 216.8833 12.86463348170480

Traccia COSMOS 2499 DEB in tempo reale con AllMySat

Download on the App Store